User: anonymous   Login
Location: Brainerd
(46.3580°N, 94.2010°W)
Time: 17:49:45
(UTC-05:00)
Language:

CZ-4C R/B - Orbit

View from above orbital plane
View from above orbital plane
View from above satellite
View from above satellite

Ground track
Ground track

The orbit data is extracted from the following two-line orbital elements,

1 32290U 07055B   17206.21813956 +.00001160 +00000-0 +34514-4 0  9993
2 32290 097.5335 313.4603 0066801 358.1827 001.9162 15.34842229537571
Epoch (UTC): 25 July 2017 05:14:07
Eccentricity: 0.0066801
inclination: 97.5335°
perigee height: 416 km
apogee height: 507 km
right ascension of ascending node: 313.4603°
argument of perigee: 358.1827°
revolutions per day: 15.34842229
mean anomaly at epoch: 1.9162°
orbit number at epoch: 53757

The dashed part of the orbit path shows where the satellite is in the earth's shadow,  

DLR